[[{"header":{"parameterUnit":"m.s-1","parameterCategory":1,"la1":30.2991,"la2":30.254,"lo1":-89.0895,"lo2":-89.0444,"dy":0.0017,"dx":0.0017,"nx":28,"ny":28,"refTime":"2023-09-16T09:00:00:Z","depth":0,"parameterNumber":2,"parameterNumberName":"U-component_of_WINDS"},"data":[0,0,0,0,0,0,0,0,0,0,0,0,0,0,0,0,0,0,0,0,0,0,0,0,0,0,0,0,0,0,0,0,0,0,0,0,0,0,0,0,0,0,0,0,0,0,0,0,0,0,0,0,0,0,0,0,0,0,1.8823,1.8823,0,1.8772,1.8771,1.877,1.8659,1.8657,1.8654,1.8652,1.8601,1.8602,1.8602,0,0,0,0,0,0,0,0,0,0,0,0,0,1.8826,1.8827,1.8823,1.8822,1.8822,1.8772,1.8771,1.877,1.8659,1.8656,1.8654,1.8651,1.8601,1.8602,1.8603,0,0,0,0,0,0,0,0,0,0,0,0,0,1.8805,1.8827,1.8823,1.876,1.8754,1.8772,1.8771,1.877,1.866,1.8656,1.8653,1.865,1.86,1.8602,1.8603,1.8678,0,0,1.8606,1.8607,0,0,0,0,0,0,0,0,1.8806,1.8805,1.877,1.8765,1.8758,1.8718,1.8753,1.8739,1.8661,1.8696,1.8652,1.8648,1.8643,1.864,1.8638,1.8675,1.8673,1.8606,1.8607,1.8607,1.8608,0,0,0,0,0,0,0,1.8808,1.8807,1.8803,1.877,1.8762,1.8735,1.8728,1.875,1.8689,1.8692,1.8684,1.868,1.8639,1.8637,1.8636,1.8672,1.8606,1.8607,1.8608,1.8608,1.8766,1.877,0,0,0,0,0,0,1.8818,1.8809,1.8804,1.8801,1.8774,1.8738,1.873,1.8734,1.8688,1.8678,1.8682,1.8675,1.8637,1.8635,1.8634,1.8717,1.8607,1.8608,1.8609,1.8763,1.8767,1.8771,0,0,0,0,0,0,1.8819,1.8819,1.8806,1.8803,1.8799,1.8741,1.8747,1.8735,1.8733,1.8681,1.867,1.8692,1.8634,1.8632,1.8667,1.8713,1.8609,1.861,1.8759,1.8764,1.8769,1.8884,0,0,0,0,0,0,1.8819,1.882,1.8848,1.8804,1.88,1.8841,1.875,1.8737,1.8735,1.8725,1.8687,1.8677,1.8631,1.8666,1.8668,1.8713,1.8611,1.8754,1.8761,1.8767,1.8876,1.8893,1.8907,0,0,0,0,0,1.882,1.8883,1.885,1.885,1.8833,1.8843,1.8841,1.8786,1.874,1.8767,1.8733,1.8679,1.8709,1.867,1.8672,1.8718,1.8751,1.8759,1.8767,1.8869,1.889,1.8907,0,0,0,0,0,0,1.8935,1.8876,1.8839,1.8889,1.8872,1.8825,1.8857,1.881,1.8806,1.8796,1.8729,1.8721,1.8765,1.8745,1.8704,1.8787,1.8721,1.8729,1.8798,1.8817,1.8833,1.8836,1.8612,0,0,0,0,0,1.8966,1.8979,1.8927,1.8977,1.897,1.8916,1.8918,1.8878,1.8857,1.885,1.8818,1.8801,1.8806,1.8811,1.8813,1.8873,1.8863,1.8906,1.8921,1.8934,1.8942,1.8971,1.8989,1.8797,1.8797,1.8797,0,0,1.903,1.9,1.9012,1.8999,1.8981,1.8996,1.891,1.893,1.894,1.8853,1.8882,1.8859,1.8836,1.8883,1.8902,1.8868,1.8993,1.8944,1.8955,1.8956,1.8981,1.8999,1.9015,1.8802,1.8801,1.88,0,0,1.9155,1.9134,1.9172,1.9155,1.9128,1.9092,1.9101,1.9061,1.9041,1.907,1.9004,1.9016,1.9027,1.9012,1.9006,1.9124,1.9073,1.9127,1.9208,1.9237,1.9252,1.9265,1.9305,1.932,1.9135,1.9136,1.9136,0,1.9238,1.9257,1.9198,1.9221,1.9217,1.9138,1.9175,1.9162,1.9138,1.9137,1.9099,1.9109,1.9088,1.913,1.9159,1.9157,1.9165,1.913,1.9254,1.9267,1.9278,1.9315,1.9331,1.9142,1.9141,1.9141,1.914,0,1.936,1.9375,1.9409,1.9386,1.9386,1.9417,1.9362,1.9369,1.9329,1.9296,1.9326,1.9297,1.9291,1.9299,1.926,1.9335,1.9314,1.9266,1.9198,1.9304,1.9338,1.9352,1.9151,1.9149,1.9147,1.9145,0,0,1.9555,1.9498,1.9512,1.95,1.9464,1.9474,1.9501,1.9495,1.9501,1.9488,1.9507,1.9518,1.9473,1.9466,1.9425,1.9451,1.9544,1.9399,1.9398,1.9425,1.9622,1.9657,1.9675,1.9511,1.9513,1.9515,1.9624,0,1.967,1.9711,1.9658,1.9712,1.9724,1.9649,1.9672,1.9653,1.9623,1.9629,1.9596,1.9604,1.9545,1.954,1.9562,1.9528,1.9582,1.952,1.9528,1.9529,1.9534,1.9693,1.973,1.9834,1.9637,1.9639,1.9641,0,1.9809,1.98,1.9855,1.9814,1.9817,1.9839,1.9828,1.9835,1.9811,1.9788,1.978,1.973,1.9754,1.9689,1.9719,1.9678,1.9678,1.9662,1.9664,1.9662,1.959,1.9693,1.9866,1.9881,1.9662,1.966,1.9658,0,1.9943,1.9945,1.9977,1.997,1.9924,1.9941,1.9923,1.9896,1.9895,1.9886,1.9884,1.9878,1.9875,1.9871,1.9821,1.9778,1.9857,1.9788,1.9837,1.9838,1.9855,1.9854,2.0029,1.9859,1.9859,1.9859,1.9858,0,2.0075,2.0111,2.0036,2.0056,2.0094,2.0033,2.0072,2.0046,2.0023,2.0036,1.9972,1.9985,1.9919,1.9926,1.9887,1.9917,1.9917,1.9897,1.9886,1.9902,1.9904,1.99,1.9891,1.9863,1.9862,1.9861,1.986,0,2.0231,2.0182,2.0212,2.0166,2.0155,2.0185,2.0146,2.0162,2.0128,2.0145,2.0146,2.0093,2.0097,2.0047,2.0042,2.0016,2.0063,2.004,2.007,2.0062,2.0113,2.0108,2.0289,2.0309,2.0129,2.0131,2.0133,0,2.0317,2.0343,2.0299,2.0303,2.0288,2.0295,2.0293,2.0235,2.0235,2.021,2.0229,2.0228,2.0223,2.0234,2.0195,2.019,2.0166,2.0229,2.0164,2.0179,2.0164,2.0162,2.0164,2.0242,2.0245,2.0247,2.0248,0,2.0476,2.045,2.045,2.0441,2.0441,2.0431,2.0417,2.0424,2.036,2.0364,2.0367,2.0364,2.0358,2.0357,2.0345,2.0326,2.0276,2.0269,2.028,2.0295,2.0311,2.0301,2.0105,2.0265,2.0263,2.0262,2.0261,2.026,2.0598,2.0616,2.0588,2.0589,2.0573,2.0561,2.0573,2.0541,2.0542,2.0532,2.0498,2.0507,2.0481,2.0459,2.0445,2.0451,2.0419,2.0436,2.0439,2.0443,2.0452,2.0312,2.0449,2.0448,2.0447,2.0447,2.0447,0,2.0751,2.0729,2.0731,2.0713,2.0714,2.0667,2.0649,2.0653,2.0662,2.0642,2.0639,2.0642,2.0641,2.0601,2.0595,2.0607,2.0584,2.0607,2.0605,2.0601,2.0481,2.0472,2.0626,2.0626,2.0626,2.0626,2.0626,2.0626,2.0831,2.0859,2.083,2.0849,2.0827,2.0834,2.0828,2.0817,2.08,2.0806,2.0805,2.0779,2.0751,2.0742,2.0738,2.0727,2.0727,2.0757,2.0738,2.0627,2.0609,2.0593,2.0583,2.0758,2.0759,2.0856,2.0857,2.0858]},{"header":{"parameterUnit":"m.s-1","parameterCategory":1,"la1":30.2991,"la2":30.254,"lo1":-89.0895,"lo2":-89.0444,"dy":0.0017,"dx":0.0017,"nx":28,"ny":28,"refTime":"2023-09-16T09:00:00:Z","depth":0,"parameterNumber":3,"parameterNumberName":"V-component_of_WINDS"},"data":[0,0,0,0,0,0,0,0,0,0,0,0,0,0,0,0,0,0,0,0,0,0,0,0,0,0,0,0,0,0,0,0,0,0,0,0,0,0,0,0,0,0,0,0,0,0,0,0,0,0,0,0,0,0,0,0,0,0,0.6417,0.6418,0,0.65,0.6501,0.6502,0.6511,0.6511,0.651,0.6509,0.6595,0.6598,0.6601,0,0,0,0,0,0,0,0,0,0,0,0,0,0.6265,0.6267,0.6417,0.6418,0.6419,0.65,0.6501,0.6502,0.6511,0.651,0.6509,0.6508,0.6594,0.6597,0.6601,0,0,0,0,0,0,0,0,0,0,0,0,0,0.6338,0.6268,0.6416,0.6433,0.6435,0.65,0.6501,0.6503,0.6512,0.651,0.6509,0.6508,0.6593,0.6597,0.6602,0.6655,0,0,0.6616,0.6618,0,0,0,0,0,0,0,0,0.6333,0.6343,0.643,0.6432,0.6435,0.6494,0.6479,0.6554,0.6512,0.6483,0.6509,0.6507,0.6562,0.6569,0.6588,0.6659,0.6663,0.6616,0.6619,0.6621,0.6622,0,0,0,0,0,0,0,0.6328,0.634,0.645,0.6431,0.6434,0.6436,0.6445,0.6493,0.6529,0.6485,0.6486,0.6496,0.6563,0.6583,0.659,0.6664,0.6616,0.662,0.6623,0.6625,0.6783,0.6784,0,0,0,0,0,0,0.632,0.6335,0.6447,0.6452,0.638,0.644,0.645,0.6476,0.6528,0.6535,0.6497,0.6496,0.6576,0.6584,0.6593,0.6659,0.6621,0.6625,0.6628,0.6781,0.6783,0.6785,0,0,0,0,0,0,0.6317,0.633,0.6444,0.6394,0.6409,0.6444,0.6473,0.6479,0.6498,0.6537,0.6543,0.6511,0.6575,0.6586,0.6639,0.6662,0.6627,0.6631,0.678,0.6782,0.6784,0.679,0,0,0,0,0,0,0.6313,0.6329,0.635,0.6394,0.6411,0.6489,0.6475,0.6481,0.6506,0.6506,0.6552,0.6558,0.6575,0.6632,0.6644,0.6667,0.6635,0.6778,0.6781,0.6783,0.6788,0.6793,0.6796,0,0,0,0,0,0.6307,0.6349,0.6351,0.6364,0.6438,0.649,0.65,0.6519,0.6508,0.6529,0.6554,0.6556,0.6657,0.6638,0.6651,0.6676,0.6776,0.678,0.6783,0.6787,0.6792,0.6796,0,0,0,0,0,0,0.6306,0.6355,0.6358,0.6415,0.6448,0.6492,0.6519,0.6524,0.6561,0.6559,0.6581,0.6592,0.6643,0.6665,0.6643,0.673,0.6716,0.6722,0.6714,0.6719,0.6723,0.6717,0.6639,0,0,0,0,0,0.6313,0.6351,0.6391,0.6438,0.6455,0.6484,0.6507,0.6519,0.6554,0.6569,0.6597,0.6631,0.667,0.6696,0.6734,0.6791,0.6801,0.6815,0.6819,0.6822,0.6827,0.6857,0.6864,0.6795,0.6795,0.6795,0,0,0.6327,0.6358,0.6381,0.6439,0.6466,0.6505,0.6496,0.6538,0.6566,0.6575,0.6627,0.6648,0.6688,0.6743,0.6769,0.6762,0.6848,0.6826,0.6828,0.6831,0.6861,0.6868,0.6873,0.6797,0.6797,0.6797,0,0,0.6372,0.64,0.6441,0.6468,0.6509,0.6528,0.6538,0.658,0.6595,0.6647,0.6654,0.6688,0.6756,0.6784,0.6806,0.686,0.6864,0.6872,0.6892,0.6922,0.6927,0.6932,0.6951,0.6957,0.6877,0.6877,0.6877,0,0.6384,0.6443,0.6462,0.6503,0.6528,0.6537,0.6579,0.6604,0.6656,0.6672,0.6665,0.6749,0.6776,0.6837,0.685,0.6868,0.688,0.6867,0.6925,0.693,0.6935,0.6953,0.696,0.6878,0.6878,0.6877,0.6877,0,0.6455,0.6496,0.6525,0.6573,0.6601,0.6643,0.6668,0.6694,0.6702,0.6722,0.6774,0.6807,0.6852,0.6867,0.6877,0.6929,0.6924,0.6921,0.6907,0.6942,0.6959,0.6966,0.6879,0.6878,0.6878,0.6878,0,0,0.6504,0.6561,0.6571,0.6593,0.6638,0.667,0.6711,0.6754,0.6776,0.6811,0.6846,0.6902,0.6898,0.6924,0.6937,0.6963,0.7002,0.6956,0.6957,0.6963,0.7061,0.7064,0.7071,0.7005,0.7006,0.7007,0.7058,0,0.6553,0.6627,0.6645,0.6708,0.6745,0.6753,0.6789,0.682,0.684,0.6874,0.6895,0.6934,0.6927,0.6942,0.6968,0.6992,0.7022,0.6989,0.7037,0.7039,0.7027,0.7081,0.7083,0.713,0.7065,0.7066,0.7067,0,0.6622,0.6657,0.6724,0.6763,0.6779,0.6811,0.6852,0.6884,0.692,0.6932,0.696,0.6969,0.7012,0.6996,0.7054,0.7031,0.7052,0.7066,0.7068,0.7074,0.7055,0.7087,0.7145,0.7152,0.7078,0.7077,0.7076,0,0.6649,0.6714,0.6762,0.678,0.6827,0.6849,0.687,0.6904,0.6929,0.6964,0.698,0.702,0.7042,0.7072,0.7092,0.7078,0.7149,0.7134,0.7159,0.7159,0.7174,0.7173,0.7236,0.7188,0.7188,0.7187,0.7187,0,0.6703,0.6743,0.6775,0.6804,0.6849,0.6869,0.6913,0.6933,0.6963,0.6997,0.7006,0.7037,0.7062,0.7096,0.7111,0.7157,0.7167,0.7178,0.7181,0.7177,0.7175,0.7191,0.7188,0.7189,0.7189,0.7189,0.7188,0,0.6742,0.6764,0.6817,0.6857,0.6868,0.6899,0.6933,0.6962,0.698,0.7022,0.7033,0.7063,0.7104,0.7126,0.7177,0.7188,0.7239,0.7241,0.7227,0.7228,0.7252,0.7249,0.7327,0.7338,0.7283,0.7283,0.7284,0,0.6775,0.6806,0.6848,0.6871,0.6892,0.6929,0.6954,0.6974,0.6999,0.7041,0.7064,0.7105,0.7139,0.7204,0.723,0.7268,0.7271,0.7296,0.7277,0.7271,0.7271,0.7269,0.7272,0.7299,0.73,0.73,0.73,0,0.683,0.684,0.6875,0.6914,0.6943,0.6975,0.7006,0.7024,0.7049,0.7077,0.7118,0.7145,0.7196,0.7237,0.7277,0.7298,0.7304,0.7306,0.7314,0.7309,0.73,0.7305,0.7235,0.7304,0.7304,0.7304,0.7303,0.7303,0.6867,0.6894,0.6928,0.6967,0.6992,0.7021,0.705,0.7072,0.7107,0.715,0.716,0.7203,0.7237,0.7292,0.7314,0.7348,0.7343,0.7355,0.7357,0.736,0.736,0.7294,0.7355,0.7355,0.7355,0.7355,0.7355,0,0.6922,0.6944,0.698,0.7023,0.7053,0.7055,0.7089,0.7114,0.7152,0.7183,0.7216,0.7263,0.7302,0.733,0.737,0.7392,0.7395,0.7401,0.74,0.7404,0.7363,0.7352,0.7398,0.7398,0.7398,0.7398,0.7398,0.7398,0.6955,0.7001,0.7014,0.7073,0.7095,0.7137,0.7157,0.7183,0.7208,0.7259,0.7292,0.731,0.734,0.7381,0.7417,0.7424,0.7438,0.7444,0.7452,0.7412,0.7407,0.7403,0.7393,0.7447,0.7447,0.7491,0.7491,0.7491]}]]